Home   Weather   Teseney   Past weeks

Flag for Eritrea Past Weather in Teseney, Eritrea — Yesterday and Last 2 Weeks

Now
81 °F

Clear.


Feels Like: 83 °F
Forecast: 77 / 103 °F
Wind: 10 mph from South

Location: Khartoum Airport

Current Time: Sep 28, 2016 at 6:29:21 AM

Latest Report: Sep 28, 2016 at 6:00 AM


Visibility: 10 mi

Pressure: 29.86 "Hg (27.91 "Hg at 593m altitude)

Humidity: 62%

Dew Point: 66 °F

Location of TeseneyLocation

Past Weather in Teseney — Graph

°F

Teseney Temperature Yesterday

Maximum temperature yesterday: 102 °F (at 4:00 PM)
Minimum temperature yesterday: 84 °F (at 6:30 AM)
Average temperature yesterday: 93 °F

High & Low Weather Summary for the Past Weeks

 TemperatureHumidityPressure
High106 °F (Sep 13, 4:00 PM)94% (Sep 21, 4:00 AM)30.01 "Hg (Sep 21, 4:00 AM)
Low72 °F (Sep 21, 3:30 AM)9% (Sep 13, 4:00 PM)29.68 "Hg (Sep 15, 5:30 PM)
Average91 °F38%29.82 "Hg
* Reported Sep 13 5:00 AM — Sep 28 5:00 AM, Teseney, Weather by CustomWeather, © 2016

Note: Actual official high and low records may vary slightly from our data, if they occured in-between our weather recording intervals... More about our weather records

Advertising

Teseney Weather History for the Previous 24 Hours

Scroll right to see more
 ConditionsComfort  
Time TempWeatherWind HumidityBarometerVisibility
5:00 AM
Wed, Sep 28
81 °FClear.12 mph62%29.86 "Hg10 mi
4:30 AM82 °FClear.7 mph58%29.86 "Hg10 mi
4:00 AM82 °FClear.10 mph58%29.86 "Hg10 mi
3:00 AM84 °FClear.12 mph51%29.86 "Hg10 mi
2:30 AM84 °FClear.9 mph51%29.86 "Hg10 mi
2:00 AM84 °FClear.12 mph51%29.86 "Hg10 mi
1:30 AM86 °FClear.10 mph49%29.86 "Hg10 mi
1:00 AM86 °FClear.9 mph49%29.89 "Hg10 mi
12:30 AM88 °FClear.10 mph40%29.89 "Hg10 mi
12:00 AM88 °FClear.14 mph40%29.86 "Hg10 mi
11:30 PM
Tue, Sep 27
90 °FClear.14 mph38%29.86 "Hg10 mi
11:00 PM90 °FClear.12 mph36%29.86 "Hg10 mi
10:30 PM91 °FClear.8 mph34%29.86 "Hg10 mi
10:00 PM91 °FClear.9 mph34%29.86 "Hg10 mi
9:30 PM93 °FClear.7 mph28%29.83 "Hg10 mi
9:00 PM95 °FClear.6 mph20%29.83 "Hg10 mi
8:30 PM97 °FClear.7 mph19%29.83 "Hg10 mi
8:00 PM97 °FClear.7 mph19%29.83 "Hg10 mi
7:30 PM99 °FClear.6 mph17%29.80 "Hg10 mi
7:00 PM99 °FClear.10 mph17%29.80 "Hg10 mi
6:00 PM100 °FSunny.3 mph15%29.77 "Hg10 mi
5:30 PM102 °FSunny.3 mph12%29.77 "Hg10 mi
5:00 PM102 °FSunny.8 mph12%29.77 "Hg10 mi
4:30 PM102 °FSunny.7 mph12%29.77 "Hg10 mi
4:00 PM102 °FSunny.5 mph12%29.77 "Hg10 mi
3:30 PM100 °FSunny.7 mph15%29.77 "Hg10 mi
3:00 PM100 °FSunny.No wind15%29.80 "Hg10 mi
2:30 PM100 °FSunny.5 mph15%29.80 "Hg10 mi
2:00 PM100 °FSunny.6 mph15%29.80 "Hg10 mi
1:30 PM100 °FSunny.No wind14%29.83 "Hg10 mi
1:00 PM99 °FSunny.7 mph15%29.83 "Hg10 mi
12:00 PM97 °FSunny.8 mph16%29.86 "Hg10 mi
11:30 AM97 °FSunny.8 mph16%29.86 "Hg10 mi
11:00 AM95 °FSunny.7 mph18%29.86 "Hg10 mi
10:30 AM93 °FSunny.6 mph16%29.86 "Hg10 mi
10:00 AM91 °FSunny.8 mph18%29.86 "Hg10 mi
9:30 AM90 °FSunny.10 mph20%29.86 "Hg10 mi
9:00 AM86 °FSunny.9 mph22%29.86 "Hg10 mi
8:30 AM86 °FSunny.9 mph22%29.86 "Hg10 mi
8:00 AM86 °FSunny.2 mph24%29.83 "Hg10 mi
7:30 AM84 °FSunny.6 mph23%29.83 "Hg10 mi
7:00 AM84 °FSunny.5 mph23%29.83 "Hg10 mi
6:30 AM84 °FClear.5 mph22%29.80 "Hg10 mi
6:00 AM86 °FClear.8 mph20%29.80 "Hg10 mi
Weather by CustomWeather, © 2016

See weather overviewHow to use our weather pages